CW8198 Weather Reports


time (UTC)temp
F
wind
direction
speed
knots
gust
knots
rain 1hr
in
rain 24hr
in
rain mn
in
humidity
%
barometer
mb
20260504004029 71 309 0.9 2.6 0.00 0.00 0.00 36 1007.9
20260504003528 71 265 0.9 3.5 0.00 0.00 0.00 36 1007.9
20260504003028 72 340 1.7 4.3 0.00 0.00 0.00 35 1007.9
20260504002528 73 325 0.9 4.3 0.00 0.00 0.00 35 1008.0
20260504002027 73 341 0.9 2.6 0.00 0.00 0.00 31 1008.0
20260504001528 74 9 1.7 4.3 0.00 0.00 0.00 32 1008.0
20260504001027 74 291 2.6 7.8 0.00 0.00 0.00 32 1008.1
20260504000528 75 282 0.9 7.8 0.00 0.00 0.00 35 1008.0
20260504000026 75 259 2.6 6.1 0.00 0.00 0.00 32 1008.1
20260503234525 76 245 1.7 7.0 0.00 0.00 0.00 32 1008.1
20260503234025 76 273 1.7 7.0 0.00 0.00 0.00 33 1008.1
20260503233524 77 291 2.6 8.7 0.00 0.00 0.00 31 1008.2
20260503233025 78 296 4.3 8.7 0.00 0.00 0.00 30 1008.2
20260503232026 78 325 1.7 6.1 0.00 0.00 0.00 32 1008.2
20260503231523 78 295 1.7 7.8 0.00 0.00 0.00 31 1008.2
20260503231023 78 342 2.6 7.8 0.00 0.00 0.00 32 1008.2
20260503230022 80 72 0.9 6.1 0.00 0.00 0.00 24 1008.3
20260503225522 81 282 1.7 7.0 0.00 0.00 0.00 32 1008.3
20260503225022 80 317 1.7 7.0 0.00 0.00 0.00 31 1008.3
20260503224522 80 295 1.7 7.0 0.00 0.00 0.00 30 1008.3
20260503224022 80 315 2.6 9.6 0.00 0.00 0.00 30 1008.3
20260503223021 81 247 2.6 6.1 0.00 0.00 0.00 29 1008.3
20260503222023 80 325 1.7 8.7 0.00 0.00 0.00 29 1008.4
20260503220520 78 312 2.6 11.3 0.00 0.00 0.00 31 1008.5
20260503220018 78 348 2.6 9.6 0.00 0.00 0.00 31 1008.5
20260503215519 78 259 1.7 6.1 0.00 0.00 0.00 35 1008.6
20260503215019 78 238 1.7 7.0 0.00 0.00 0.00 31 1008.6
20260503214018 77 325 2.6 8.7 0.00 0.00 0.00 33 1008.8
20260503213518 77 249 5.2 8.7 0.00 0.00 0.00 27 1008.8
20260503213018 77 272 1.7 7.8 0.00 0.00 0.00 30 1008.7
20260503212517 78 97 2.6 12.2 0.00 0.00 0.00 28 1008.9
20260503212019 79 28 6.1 12.2 0.00 0.00 0.00 30 1009.0
20260503211517 80 298 4.3 7.8 0.00 0.00 0.00 32 1009.1
20260503211017 79 300 2.6 7.8 0.00 0.00 0.00 32 1009.1
20260503210517 78 319 1.7 7.8 0.00 0.00 0.00 30 1009.3
20260503210017 77 338 2.6 7.8 0.00 0.00 0.00 37 1009.4
20260503205517 76 265 0.9 10.4 0.00 0.00 0.00 30 1009.5
20260503205017 76 309 2.6 10.4 0.00 0.00 0.00 34 1009.5
20260503204516 76 346 5.2 10.4 0.00 0.00 0.00 34 1009.6
20260503204016 77 26 1.7 7.8 0.00 0.00 0.00 29 1009.6
20260503203515 77 225 3.5 7.8 0.00 0.00 0.00 30 1009.6
20260503203016 77 282 1.7 5.2 0.00 0.00 0.00 33 1009.7
20260503202516 77 76 1.7 10.4 0.00 0.00 0.00 38 1009.8
20260503202017 77 265 2.6 10.4 0.00 0.00 0.00 36 1010.0
20260503201514 77 309 1.7 8.7 0.00 0.00 0.00 36 1009.9
20260503201014 77 51 1.7 12.2 0.00 0.00 0.00 39 1010.2
20260503200509 77 321 4.3 13.9 0.00 0.00 0.00 30 1010.2
20260503195009 74 286 2.6 11.3 0.00 0.00 0.00 37 1010.3
20260503194509 74 348 2.6 11.3 0.00 0.00 0.00 39 1010.4
20260503194008 74 51 5.2 11.3 0.00 0.00 0.00 40 1010.5
20260503193508 73 319 3.5 9.6 0.00 0.00 0.00 38 1010.4
20260503193008 74 344 3.5 12.2 0.00 0.00 0.00 35 1010.4
20260503192508 75 331 6.1 12.2 0.00 0.00 0.00 35 1010.5
20260503191509 76 17 7.0 13.9 0.00 0.00 0.00 35 1010.6
20260503191007 76 29 4.3 9.6 0.00 0.00 0.00 35 1010.7
20260503190507 76 19 2.6 8.7 0.00 0.00 0.00 40 1010.7
20260503190008 75 15 5.2 11.3 0.00 0.00 0.00 34 1010.7
20260503185506 74 265 3.5 11.3 0.00 0.00 0.00 41 1010.8
20260503184507 74 48 6.1 17.4 0.00 0.00 0.00 33 1011.1
20260503184006 75 341 6.1 17.4 0.00 0.00 0.00 36 1011.1
20260503183506 75 340 3.5 12.2 0.00 0.00 0.00 38 1011.1
20260503183005 74 296 5.2 12.2 0.00 0.00 0.00 37 1011.1
20260503182506 74 317 4.3 10.4 0.00 0.00 0.00 36 1011.0
20260503182006 74 312 4.3 13.0 0.00 0.00 0.00 36 1011.2
20260503181507 73 342 7.0 13.0 0.00 0.00 0.00 37 1011.1
20260503181005 73 342 4.3 11.3 0.00 0.00 0.00 36 1011.2
20260503180504 74 336 4.3 12.2 0.00 0.00 0.00 37 1011.3
20260503180005 74 17 4.3 12.2 0.00 0.00 0.00 36 1011.3
20260503175504 73 342 3.5 10.4 0.00 0.00 0.00 41 1011.4
20260503175004 73 329 4.3 11.3 0.00 0.00 0.00 41 1011.5
20260503174503 72 339 5.2 11.3 0.00 0.00 0.00 36 1011.6
20260503174002 73 9 5.2 12.2 0.00 0.00 0.00 37 1011.6
20260503173502 72 9 5.2 12.2 0.00 0.00 0.00 39 1011.7
20260503173002 73 293 6.1 11.3 0.00 0.00 0.00 34 1011.7
20260503172502 73 265 4.3 14.8 0.00 0.00 0.00 38 1011.7
20260503172002 73 338 3.5 14.8 0.00 0.00 0.00 35 1011.7
20260503171002 73 317 7.8 13.9 0.00 0.00 0.00 37 1011.8
20260503150954 65 344 3.5 7.0 0.00 0.00 0.00 52 1011.7
20260503150454 64 282 2.6 8.7 0.00 0.00 0.00 50 1011.6
20260503130947 56 325 1.7 6.1 0.00 0.00 0.00 53 1010.8
20260503130447 56 265 2.6 9.6 0.00 0.00 0.00 53 1010.9
20260503090428 57 153 7.8 13.0 0.00 0.00 0.00 43 1010.0
20260503081425 57 195 5.2 8.7 0.00 0.00 0.00 43 1010.5
20260503080925 57 221 5.2 8.7 0.00 0.00 0.00 43 1010.4
20260503080424 57 196 2.6 9.6 0.00 0.00 0.00 43 1010.6
20260503072922 56 217 4.3 9.6 0.00 0.00 0.00 46 1010.9
20260503072423 56 250 4.3 9.6 0.00 0.00 0.00 44 1010.8
20260503071922 56 212 3.5 11.3 0.00 0.00 0.00 44 1010.9
20260503070921 56 34 2.6 5.2 0.00 0.00 0.00 43 1010.8
20260503070421 56 164 1.7 7.0 0.00 0.00 0.00 43 1010.9
20260503054916 58 207 4.3 7.0 0.00 0.00 0.00 38 1011.9
20260503054416 58 186 3.5 7.8 0.00 0.00 0.00 38 1011.9
20260503053916 58 187 4.3 8.7 0.00 0.00 0.00 38 1011.9
20260503053416 58 175 3.5 8.7 0.00 0.00 0.00 38 1011.9
20260503052915 57 198 3.5 7.8 0.00 0.00 0.00 40 1012.0
20260503052415 58 175 2.6 7.8 0.00 0.00 0.00 40 1011.9
20260503051914 57 148 3.5 7.8 0.00 0.00 0.00 40 1011.8
20260503051414 57 178 2.6 7.8 0.00 0.00 0.00 40 1011.9
20260503050913 57 210 3.5 7.8 0.00 0.00 0.00 40 1011.8
20260503050413 57 162 2.6 7.0 0.00 0.00 0.00 40 1011.9
20260503045913 57 198 3.5 7.0 0.00 0.00 0.00 40 1012.0
20260503045415 57 178 2.6 7.8 0.00 0.00 0.00 40 1012.1
20260503044913 58 178 3.5 7.8 0.00 0.00 0.00 40 1012.2
20260503043911 58 200 3.5 9.6 0.00 0.00 0.00 39 1012.2
20260503043414 58 162 3.5 9.6 0.00 0.00 0.00 39 1012.2
20260503042912 58 178 3.5 9.6 0.00 0.00 0.00 39 1012.3
20260503042412 58 196 4.3 8.7 0.00 0.00 0.00 39 1012.4
20260503041911 58 184 3.5 7.8 0.00 0.00 0.00 38 1012.5
20260503041411 58 208 4.3 8.7 0.00 0.00 0.00 38 1012.5
20260503035910 59 147 3.5 9.6 0.00 0.00 0.00 37 1012.6
20260503035410 59 165 3.5 9.6 0.00 0.00 0.00 37 1012.8
20260503034910 59 166 3.5 9.6 0.00 0.00 0.00 37 1012.9
20260503034409 59 187 4.3 9.6 0.00 0.00 0.00 37 1012.9
20260503033909 59 178 3.5 9.6 0.00 0.00 0.00 37 1012.9
20260503033410 59 165 5.2 9.6 0.00 0.00 0.00 36 1012.9
20260503032910 59 165 4.3 8.7 0.00 0.00 0.00 36 1013.0
20260503032408 59 148 3.5 9.6 0.00 0.00 0.00 37 1013.1
20260503031908 59 158 3.5 10.4 0.00 0.00 0.00 37 1013.1
20260503031408 59 142 5.2 10.4 0.00 0.00 0.00 37 1013.1
20260503030908 59 175 3.5 7.8 0.00 0.00 0.00 38 1013.4
20260503030407 59 139 2.6 7.8 0.00 0.00 0.00 38 1013.5
20260503025907 59 209 3.5 7.0 0.00 0.00 0.00 38 1013.4
20260503025407 59 191 3.5 6.1 0.00 0.00 0.00 39 1013.6
20260503024906 59 194 3.5 5.2 0.00 0.00 0.00 39 1013.5
20260503024407 59 149 3.5 6.1 0.00 0.00 0.00 40 1013.6
20260503023906 58 155 3.5 6.1 0.00 0.00 0.00 40 1013.6
20260503023408 58 139 3.5 5.2 0.00 0.00 0.00 40 1013.6
20260503022905 58 139 2.6 4.3 0.00 0.00 0.00 40 1013.7
20260503022405 58 129 1.7 5.2 0.00 0.00 0.00 40 1013.7
20260503021905 59 137 2.6 5.2 0.00 0.00 0.00 40 1013.7
20260503021405 59 162 1.7 4.3 0.00 0.00 0.00 40 1013.8
20260503020403 60 119 2.6 3.5 0.00 0.00 0.00 39 1013.9
20260503015905 60 140 1.7 2.6 0.00 0.00 0.00 37 1014.0
20260503015404 61 126 1.7 2.6 0.00 0.00 0.00 36 1014.0
20260503014903 62 119 1.7 2.6 0.00 0.00 0.00 35 1014.0
20260503014402 62 132 1.7 2.6 0.00 0.00 0.00 33 1014.1
20260503013902 63 126 1.7 3.5 0.00 0.00 0.00 33 1014.2
20260503013403 63 123 1.7 4.3 0.00 0.00 0.00 31 1014.2
20260503012903 64 178 1.7 4.3 0.00 0.00 0.00 31 1014.2
20260503012401 64 151 1.7 4.3 0.00 0.00 0.00 30 1014.2
20260503011901 64 196 1.7 4.3 0.00 0.00 0.00 30 1014.2
20260503010900 65 178 1.7 8.7 0.00 0.00 0.00 30 1014.3
20260503010400 65 171 2.6 8.7 0.00 0.00 0.00 29 1014.3
20260503005901 65 195 2.6 6.1 0.00 0.00 0.00 29 1014.3
20260503005359 65 217 3.5 5.2 0.00 0.00 0.00 29 1014.1